Карточка аэропорта URRP

Внимание!
Информация на этой странице в стадии наполнения.
Если вы не увидели какой-то информации, или заметили неточность - пожалуйста сообщите нам!
Спасибо!
Команда RU-STAFF
Название аэропортаПлатов
Название аэропорта (англ.)Platov
Превышение282 ft. (86 m.)
Координаты47°29.634', 39°55.482'
Высота перехода3500 ft
Эшелон переходаFL50 (QNH >= 996); FL60 (QNH < 996)
Коды ответчика1001-1017
Зона ОрВДРостов-на-Дону РПИ (URRV)
Данные METARURRP 070600Z 11009MPS 9999 FEW/// M09/M12 Q1027 R05/CLRD70 NOSIG RMK QFE766/1022
Проноз погоды (TAF)URRP 070456Z 0706/0806 10009G15MPS 9999 FEW004 SCT016 TEMPO 0706/0718 12011G18MPS FM071800 11007G12MPS 6000 -SN FEW002 OVC016
NOTAMshow/hide NOTAM
AWOS   TABLE

Информация о ВПП

ВПП Длина ВПП (м.) Покрытие Курс ВПП Частота ILS
233900Цементобетон226110.9
053900Цементобетон46111.5

Диспетчерские позиции

Позывной Наименование органа УВД Частота
URRP_APPПлатов-подход128.2
URRP_DELПлатов-деливери127.1
URRP_TWRПлатов-Вышка119.7
URRP_GNDПлатов - руление119.0
URRP_R_APPПлатов - Круг121.2



Спутниковое изображение